Weather History for Hulett, WY

Change the Weather History Date:

Thursday, December 12, 2013

  Actual Average (KEFC) Record (KEFC)
Temperature  
Mean Temperature 27 °F -  
Max Temperature 39 °F 40 °F 58 °F (1993)
Min Temperature 15 °F 17 °F -14 °F (2000)
Degree Days  
Heating Degree Days 38    
Moisture  
Dew Point 16 °F    
Average Humidity 59    
Maximum Humidity 69    
Minimum Humidity 45    
Precipitation  
Precipitation 0.00 in - - ()
Sea Level Pressure  
Sea Level Pressure 30.02 in    
Wind  
Wind Speed 8 mph (WSW)    
Max Wind Speed 14 mph    
Max Gust Speed -    
Visibility 10 miles    
Events      
Averages and records for this station are not official NWS values.
T = Trace of Precipitation, MM = Missing Value Source: NWS Daily Summary

Daily Weather History Graph

Daily Weather History Graph

Search for Another Location

Airport:

Trip Planner

Search our weather history database for the weather conditions in past years. The results will help you decide how hot, cold, wet, or windy it might be!

Date:

Astronomy

Dec. 12, 2013 Rise Set
Actual Time 7:26 AM MST 4:17 PM MST
Civil Twilight 6:52 AM MST 4:51 PM MST
Nautical Twilight 6:15 AM MST 5:28 PM MST
Astronomical Twilight 5:40 AM MST 6:03 PM MST
Moon 1:34 PM MST (12/12) 2:42 AM MST (12/12)
Length of Visible Light 9h 58m
Length of Day
8h 51m
Waxing Gibbous, 81% of the Moon is Illuminated
Dec 12
Waxing Gibbous
Dec 17
Full
Dec 25
Last Quarter
Jan 1
New
Jan 7
First Quarter

Hourly Weather History & Observations

Time (MST) Temp. Windchill Dew Point Humidity Pressure Visibility Wind Dir Wind Speed Gust Speed Precip Events Conditions
12:15 AM 17.6 °F - 8.6 °F 68% 30.15 in 10.0 mi North - - N/A   Clear
12:35 AM 19.4 °F 10.4 °F 8.6 °F 63% 30.14 in 10.0 mi SW 6.9 mph - N/A   Clear
12:55 AM 15.8 °F 7.2 °F 6.8 °F 68% 30.13 in 10.0 mi SW 5.8 mph - N/A   Clear
1:15 AM 19.4 °F 7.9 °F 8.6 °F 63% 30.12 in 10.0 mi SW 10.4 mph - N/A   Clear
1:35 AM 21.2 °F 12.6 °F 8.6 °F 58% 30.13 in 10.0 mi WSW 6.9 mph - N/A   Clear
1:55 AM 19.4 °F 8.6 °F 8.6 °F 63% 30.12 in 10.0 mi WSW 9.2 mph - N/A   Clear
2:15 AM 21.2 °F 10.1 °F 10.4 °F 63% 30.12 in 10.0 mi WSW 10.4 mph - N/A   Clear
2:35 AM 21.2 °F 10.1 °F 10.4 °F 63% 30.12 in 10.0 mi SW 10.4 mph - N/A   Clear
2:55 AM 26.6 °F 16.8 °F 10.4 °F 51% 30.12 in 10.0 mi SW 10.4 mph - N/A   Clear
3:15 AM 26.6 °F 16.8 °F 12.2 °F 55% 30.10 in 10.0 mi SW 10.4 mph - N/A   Scattered Clouds
3:35 AM 23.0 °F 11.7 °F 12.2 °F 63% 30.11 in 10.0 mi WSW 11.5 mph - N/A   Mostly Cloudy
3:55 AM 24.8 °F 12.9 °F 12.2 °F 59% 30.11 in 10.0 mi SW 13.8 mph - N/A   Scattered Clouds
4:15 AM 28.4 °F 18.5 °F 12.2 °F 51% 30.11 in 10.0 mi SW 11.5 mph - N/A   Mostly Cloudy
4:35 AM 26.6 °F 17.5 °F 12.2 °F 55% 30.11 in 10.0 mi WSW 9.2 mph - N/A   Mostly Cloudy
4:55 AM 23.0 °F 17.0 °F 12.2 °F 63% 30.12 in 10.0 mi West 4.6 mph - N/A   Scattered Clouds
5:15 AM 24.8 °F 16.1 °F 12.2 °F 59% 30.12 in 10.0 mi SW 8.1 mph - N/A   Clear
5:35 AM 26.6 °F 16.8 °F 14.0 °F 59% 30.12 in 10.0 mi SSW 10.4 mph - N/A   Scattered Clouds
5:55 AM 24.8 °F 19.1 °F 12.2 °F 59% 30.12 in 10.0 mi WSW 4.6 mph - N/A   Scattered Clouds
6:15 AM 21.2 °F 14.9 °F 12.2 °F 68% 30.13 in 10.0 mi West 4.6 mph - N/A   Clear
6:35 AM 21.2 °F 14.9 °F 12.2 °F 68% 30.13 in 10.0 mi WSW 4.6 mph - N/A   Scattered Clouds
6:55 AM 21.2 °F 13.6 °F 12.2 °F 68% 30.13 in 10.0 mi West 5.8 mph - N/A   Scattered Clouds
7:15 AM 21.2 °F 13.6 °F 12.2 °F 68% 30.13 in 10.0 mi West 5.8 mph - N/A   Clear
7:35 AM 21.2 °F 12.6 °F 12.2 °F 68% 30.13 in 10.0 mi West 6.9 mph - N/A   Clear
7:55 AM 21.2 °F 12.6 °F 12.2 °F 68% 30.13 in 10.0 mi WSW 6.9 mph - N/A   Clear
11:15 AM 33.8 °F 25.3 °F 17.6 °F 52% 30.11 in 10.0 mi WSW 11.5 mph - N/A   Clear
12:35 PM 37.4 °F 32.8 °F 19.4 °F 48% 30.07 in 10.0 mi West 5.8 mph - N/A   Clear
12:55 PM 37.4 °F 32.1 °F 19.4 °F 48% 30.05 in 10.0 mi West 6.9 mph - N/A   Clear
1:15 PM 37.4 °F 30.8 °F 21.2 °F 52% 30.05 in 10.0 mi WSW 9.2 mph - N/A   Clear
1:35 PM 37.4 °F 30.8 °F 19.4 °F 48% 30.03 in 10.0 mi SW 9.2 mph - N/A   Clear
1:55 PM 39.2 °F 33.6 °F 19.4 °F 45% 30.03 in 10.0 mi WSW 8.1 mph - N/A   Clear
2:15 PM 37.4 °F 30.8 °F 21.2 °F 52% 30.02 in 10.0 mi WSW 9.2 mph - N/A   Clear
2:35 PM 39.2 °F 33.0 °F 21.2 °F 49% 30.01 in 10.0 mi WSW 9.2 mph - N/A   Clear
2:55 PM 39.2 °F 34.2 °F 21.2 °F 49% 30.01 in 10.0 mi WSW 6.9 mph - N/A   Clear
3:15 PM 37.4 °F 34.9 °F 21.2 °F 52% 30.00 in 10.0 mi West 3.5 mph - N/A   Clear
3:35 PM 37.4 °F 34.9 °F 19.4 °F 48% 30.00 in 10.0 mi WSW 3.5 mph - N/A   Clear
3:55 PM 37.4 °F 32.1 °F 19.4 °F 48% 29.99 in 10.0 mi WSW 6.9 mph - N/A   Clear
4:15 PM 37.4 °F 32.1 °F 19.4 °F 48% 29.99 in 10.0 mi SW 6.9 mph - N/A   Clear
4:35 PM 35.6 °F 29.2 °F 19.4 °F 52% 29.99 in 10.0 mi WSW 8.1 mph - N/A   Clear
4:55 PM 35.6 °F 29.9 °F 19.4 °F 52% 29.98 in 10.0 mi WSW 6.9 mph - N/A   Clear
5:15 PM 32.0 °F 25.6 °F 19.4 °F 60% 29.97 in 10.0 mi SW 6.9 mph - N/A   Clear
5:35 PM 30.2 °F 25.4 °F 19.4 °F 64% 29.96 in 10.0 mi SSW 4.6 mph - N/A   Clear
5:55 PM 30.2 °F 23.4 °F 19.4 °F 64% 29.96 in 10.0 mi South 6.9 mph - N/A   Clear
6:15 PM 28.4 °F 22.2 °F 19.4 °F 69% 29.94 in 10.0 mi SW 5.8 mph - N/A   Clear
6:35 PM 28.4 °F 22.2 °F 19.4 °F 69% 29.94 in 10.0 mi SSW 5.8 mph - N/A   Clear
6:55 PM 32.0 °F - 19.4 °F 60% 29.94 in 10.0 mi Calm Calm - N/A   Clear
7:15 PM 32.0 °F 27.5 °F 19.4 °F 60% 29.93 in 10.0 mi SW 4.6 mph - N/A   Clear
7:35 PM 30.2 °F 23.4 °F 17.6 °F 60% 29.93 in 10.0 mi SSW 6.9 mph - N/A   Clear
7:55 PM 30.2 °F 23.4 °F 19.4 °F 64% 29.92 in 10.0 mi SW 6.9 mph - N/A   Clear
8:15 PM 32.0 °F 24.8 °F 19.4 °F 60% 29.92 in 10.0 mi SW 8.1 mph - N/A   Clear
8:35 PM 32.0 °F 24.2 °F 19.4 °F 60% 29.91 in 10.0 mi SSW 9.2 mph - N/A   Clear
8:55 PM 33.8 °F 26.4 °F 21.2 °F 60% 29.90 in 10.0 mi SW 9.2 mph - N/A   Clear
9:15 PM 33.8 °F 27.0 °F 21.2 °F 60% 29.89 in 10.0 mi SW 8.1 mph - N/A   Clear
9:35 PM 33.8 °F 27.7 °F 21.2 °F 60% 29.88 in 10.0 mi SW 6.9 mph - N/A   Clear
9:55 PM 33.8 °F 26.4 °F 21.2 °F 60% 29.88 in 10.0 mi SSW 9.2 mph - N/A   Clear
10:15 PM 33.8 °F 27.7 °F 21.2 °F 60% 29.88 in 10.0 mi WSW 6.9 mph - N/A   Clear
10:35 PM 28.4 °F 22.2 °F 19.4 °F 69% 29.88 in 10.0 mi West 5.8 mph - N/A   Clear
10:55 PM 30.2 °F 24.3 °F 19.4 °F 64% 29.88 in 10.0 mi West 5.8 mph - N/A   Clear
11:15 PM 28.4 °F 20.4 °F 19.4 °F 69% 29.87 in 10.0 mi SSW 8.1 mph - N/A   Clear
11:35 PM 28.4 °F 24.6 °F 19.4 °F 69% 29.87 in 10.0 mi West 3.5 mph - N/A   Clear
11:55 PM 30.2 °F - 19.4 °F 64% 29.87 in 10.0 mi Calm Calm - N/A   Clear